Location: Oak Glen
(34.0495°N, 116.9470°E)
Time: 04:25:45
(UTC-07:00)

Tiangong 1 - Pass Details

Date: 15 October 2017
Orbit: 292 x 319 km, 42.8° (Epoch: 24 October)

Event Time Altitude Azimuth Distance (km) Brightness Sun altitude
Rises 03:38:12 0° 304° (NW) 2,037 5.7 -13.1°
Reaches altitude 10° 03:40:18 10° 314° (NW) 1,201 4.2 -13.6°
Maximum altitude 03:42:47 33° 22° (NNE) 541 1.6 -14.1°
Enters shadow 03:43:16 30° 47° (NE) 578 1.5 -14.2°
